Location: Newark
(50.4348°N, 30.5552°E)
Time: 22:07:56
(UTC+00:00)

Transit 2A Rocket - Pass Details

Date: 31 January 2020
Orbit: 592 x 911 km, 66.7° (Epoch: 19 February)

Event Time Altitude Azimuth Distance (km) Brightness Sun altitude
Exits shadow 01:47:22 16° 53° (NE) 1,622 7.3 -36.1°
Drops below altitude 10° 01:48:18 10° 48° (NE) 1,968 7.8 -35.9°
Sets 01:50:41 0° 42° (NE) 2,906 8.7 -35.6°
